Home   Weather   Asheville   Past weeks

Flag for USA Past Weather in Asheville, North Carolina, USA — Yesterday and Last 2 Weeks

81 °F

Partly sunny.

Feels Like: 80 °F
Forecast: 58 / 82 °F
Wind: 12 mph from South

Location: Asheville Regional Airport

Current Time: Oct 20, 2016 at 5:29:12 PM

Latest Report: Oct 20, 2016 at 4:54 PM

Visibility: 10 mi

Pressure: 29.90 "Hg (27.78 "Hg at 647m altitude)

Humidity: 35%

Dew Point: 51 °F

Location of AshevilleLocation

Past Weather in Asheville — Graph


Asheville Temperature Yesterday

Maximum temperature yesterday: 84 °F (at 2:54 PM)
Minimum temperature yesterday: 53 °F (at 6:54 AM)
Average temperature yesterday: 67 °F

High & Low Weather Summary for the Past Weeks

High84 °F (Oct 19, 2:54 PM)97% (Oct 12, 8:58 AM)30.43 "Hg (Oct 12, 8:58 AM)
Low37 °F (Oct 12, 6:54 AM)23% (Oct 10, 1:54 PM)29.83 "Hg (Oct 8, 12:54 PM)
Average61 °F69%30.17 "Hg
* Reported Oct 5 3:54 PM — Oct 20 3:54 PM, Asheville, Weather by CustomWeather, © 2016

Note: Actual official high and low records may vary slightly from our data, if they occured in-between our weather recording intervals... More about our weather records


Asheville Weather History for the Previous 24 Hours

Scroll right to see more
Time TempWeatherWind HumidityBarometerVisibility
3:54 PM
Thu, Oct 20
82 °FPassing clouds.12 mph34%29.91 "Hg10 mi
2:54 PM81 °FSunny.9 mph38%29.93 "Hg6 mi
1:54 PM81 °FPassing clouds.7 mph38%29.96 "Hg10 mi
12:54 PM80 °FSunny.5 mph38%29.98 "Hg10 mi
11:54 AM76 °FSunny.No wind48%30.01 "Hg10 mi
10:54 AM71 °FSunny.No wind61%30.04 "Hg10 mi
9:54 AM63 °FSunny.No wind81%30.07 "Hg10 mi
8:54 AM56 °FPartly sunny.3 mph93%30.09 "Hg7 mi
8:02 AM54 °FFog.No wind93%30.14 "Hg2 mi
7:59 AM54 °FFog.No wind93%30.14 "Hg1 mi
6:54 AM55 °FClear.No wind87%30.08 "Hg10 mi
5:54 AM56 °FClear.No wind90%30.06 "Hg10 mi
4:54 AM57 °FClear.No wind90%30.05 "Hg10 mi
3:54 AM58 °FClear.No wind90%30.04 "Hg9 mi
2:54 AM59 °FClear.No wind87%30.05 "Hg10 mi
1:54 AM61 °FClear.3 mph87%30.06 "Hg10 mi
12:54 AM63 °FPassing clouds.No wind84%30.06 "Hg10 mi
11:54 PM
Wed, Oct 19
63 °FPassing clouds.No wind84%30.09 "Hg10 mi
10:54 PM65 °FPassing clouds.No wind78%30.10 "Hg10 mi
9:54 PM66 °FPassing clouds.No wind75%30.09 "Hg10 mi
8:54 PM70 °FPassing clouds.No wind64%30.09 "Hg10 mi
7:54 PM71 °FPassing clouds.3 mph59%30.07 "Hg10 mi
6:54 PM76 °FClear.5 mph47%30.05 "Hg10 mi
5:54 PM81 °FPassing clouds.6 mph37%30.03 "Hg10 mi
Weather by CustomWeather, © 2016

See weather overviewHow to use our weather pages